Eagle River, WI

2:23 AM CDT on July 21, 2017 (GMT -0500)
Eagle River Union

Weather History for KEGV - November, 2010

Change the Weather History Date:

Thursday, November 11, 2010

  Actual Average Record
Temperature  
Mean Temperature 44 °F -  
Max Temperature 51 °F 39 °F 55 °F (2012)
Min Temperature 37 °F 26 °F 7 °F (2008)
Degree Days  
Heating Degree Days 20    
Moisture  
Dew Point 35 °F    
Average Humidity 65    
Maximum Humidity 97    
Minimum Humidity 34    
Precipitation  
Precipitation 0.00 in - - ()
Sea Level Pressure  
Sea Level Pressure 30.19 in    
Wind  
Wind Speed 9 mph (SW)    
Max Wind Speed 20 mph    
Max Gust Speed 25 mph    
Visibility 8 miles    
Events      
Averages and records for this station are not official NWS values.
T = Trace of Precipitation, MM = Missing Value Source: NWS Daily Summary

Daily Weather History Graph

Daily Weather History Graph

Search for Another Location

Airport or City:

Trip Planner

Search our weather history database for the weather conditions in past years. The results will help you decide how hot, cold, wet, or windy it might be!

Date:

Astronomy

Nov. 11, 2010 Rise Set
Actual Time 6:51 AM CST 4:29 PM CST
Civil Twilight 6:19 AM CST 5:01 PM CST
Nautical Twilight 5:43 AM CST 5:37 PM CST
Astronomical Twilight 5:08 AM CST 6:12 PM CST
Moon 11:53 AM CST (11/11) 9:34 PM CST (11/11)
Length of Visible Light 10h 42m
Length of Day
9h 38m
Waxing Crescent, 32% of the Moon is Illuminated
Nov 11
Waxing Crescent
Nov 13
First Quarter
Nov 21
Full
Nov 28
Last Quarter
Dec 5
New

Hourly Weather History & Observations

Time (CST) Temp. Windchill Dew Point Humidity Pressure Visibility Wind Dir Wind Speed Gust Speed Precip Events Conditions
12:14 AM 48.4 °F - 44.8 °F 87% 30.03 in 5.0 mi SSE 5.8 mph - N/A   Overcast
12:34 AM 48.6 °F - 44.8 °F 87% 30.04 in 5.0 mi SSE 6.9 mph - N/A   Overcast
1:14 AM 48.7 °F - 45.0 °F 87% 30.04 in 5.0 mi SSE 8.1 mph - N/A   Overcast
1:34 AM 48.6 °F - 44.8 °F 87% 30.04 in 5.0 mi SSE 6.9 mph - N/A   Overcast
1:54 AM 48.9 °F - 44.8 °F 86% 30.05 in 5.0 mi SSE 9.2 mph - N/A   Overcast
2:34 AM 48.0 °F - 43.9 °F 86% 30.05 in 5.0 mi SSE 9.2 mph - N/A   Mostly Cloudy
3:14 AM 46.9 °F - 43.3 °F 87% 30.05 in 5.0 mi SSE 8.1 mph - N/A   Scattered Clouds
3:34 AM 47.3 °F - 43.5 °F 87% 30.05 in 5.0 mi SSE 6.9 mph - N/A   Mostly Cloudy
3:54 AM 47.3 °F - 43.5 °F 87% 30.06 in 5.0 mi SSE 8.1 mph - N/A   Mostly Cloudy
4:14 AM 47.3 °F - 43.7 °F 87% 30.06 in 5.0 mi South 9.2 mph - N/A   Overcast
4:34 AM 47.5 °F - 43.7 °F 87% 30.06 in 5.0 mi South 6.9 mph - N/A   Overcast
4:53 AM 47.5 °F - 43.9 °F 87% 30.06 in 5.0 mi South 5.8 mph - N/A   Overcast
5:13 AM 47.8 °F - 44.2 °F 87% 30.06 in 5.0 mi SSE 5.8 mph - N/A   Overcast
5:34 AM 48.2 °F - 44.8 °F 88% 30.06 in 7.0 mi South 6.9 mph - N/A   Overcast
5:54 AM 49.1 °F - 45.5 °F 87% 30.06 in 7.0 mi South 5.8 mph - N/A   Overcast
6:13 AM 50.0 °F - 45.9 °F 86% 30.07 in 7.0 mi South 6.9 mph - N/A   Overcast
6:33 AM 50.0 °F - 46.4 °F 87% 30.08 in 7.0 mi South 6.9 mph - N/A   Overcast
6:54 AM 49.5 °F - 47.3 °F 92% 30.09 in 5.0 mi SSW 5.8 mph - N/A   Mostly Cloudy
7:14 AM 50.0 °F - 49.1 °F 97% 30.10 in 5.0 mi SSW 5.8 mph - N/A   Overcast
7:33 AM 49.5 °F - 46.8 °F 90% 30.12 in 7.0 mi WSW 16.1 mph 23.0 mph N/A   Overcast
7:53 AM 48.7 °F - 43.3 °F 82% 30.13 in 10.0 mi SW 19.6 mph 25.3 mph N/A   Overcast
8:13 AM 48.0 °F - 41.5 °F 78% 30.14 in 10.0 mi WSW 17.3 mph 21.9 mph N/A   Overcast
8:33 AM 46.2 °F 41.2 °F 40.6 °F 81% 30.15 in 10.0 mi WSW 10.4 mph 18.4 mph N/A   Overcast
8:54 AM 44.4 °F 38.2 °F 38.3 °F 79% 30.16 in 10.0 mi SW 12.7 mph 16.1 mph N/A   Overcast
9:13 AM 43.9 °F 37.5 °F 37.4 °F 78% 30.18 in 10.0 mi West 12.7 mph - N/A   Overcast
9:33 AM 44.6 °F 38.1 °F 36.9 °F 74% 30.18 in 10.0 mi WSW 13.8 mph - N/A   Scattered Clouds
9:53 AM 45.5 °F 39.2 °F 36.5 °F 71% 30.19 in 10.0 mi SW 13.8 mph 19.6 mph N/A   Scattered Clouds
10:14 AM 46.0 °F 41.0 °F 35.8 °F 67% 30.20 in 10.0 mi WSW 10.4 mph 18.4 mph N/A   Clear
10:33 AM 46.4 °F 40.7 °F 35.4 °F 66% 30.21 in 10.0 mi WSW 12.7 mph - N/A   Clear
10:53 AM 47.7 °F - 34.9 °F 61% 30.22 in 10.0 mi SW 13.8 mph - N/A   Clear
11:14 AM 48.4 °F - 34.2 °F 58% 30.22 in 10.0 mi WSW 9.2 mph 17.3 mph N/A   Clear
11:54 AM 49.8 °F - 32.4 °F 51% 30.22 in 10.0 mi WSW 11.5 mph - N/A   Clear
12:13 PM 50.2 °F - 32.0 °F 50% 30.22 in 10.0 mi SW 11.5 mph - N/A   Clear
12:34 PM 50.5 °F - 29.3 °F 44% 30.22 in 10.0 mi WSW 13.8 mph - N/A   Clear
12:53 PM 51.1 °F - 28.4 °F 42% 30.23 in 10.0 mi WSW 12.7 mph 21.9 mph N/A   Clear
1:13 PM 51.8 °F - 26.6 °F 38% 30.23 in 10.0 mi WSW 17.3 mph - N/A   Clear
1:33 PM 51.8 °F - 25.5 °F 36% 30.23 in 10.0 mi WSW 13.8 mph - N/A   Clear
1:54 PM 50.5 °F - 25.3 °F 38% 30.24 in 10.0 mi WSW 12.7 mph - N/A   Clear
2:13 PM 51.6 °F - 23.9 °F 34% 30.24 in 10.0 mi WSW 13.8 mph 17.3 mph N/A   Clear
2:33 PM 51.8 °F - 25.3 °F 36% 30.25 in 10.0 mi SW 10.4 mph 17.3 mph N/A   Clear
2:53 PM 51.1 °F - 24.6 °F 36% 30.25 in 10.0 mi SW 10.4 mph 17.3 mph N/A   Clear
3:14 PM 50.5 °F - 22.6 °F 34% 30.26 in 10.0 mi WSW 10.4 mph 17.3 mph N/A   Clear
3:33 PM 50.0 °F - 24.1 °F 36% 30.27 in 10.0 mi SW 8.1 mph - N/A   Clear
3:53 PM 48.6 °F - 22.8 °F 36% 30.27 in 10.0 mi WSW 9.2 mph - N/A   Clear
4:13 PM 47.8 °F - 23.0 °F 38% 30.28 in 10.0 mi WSW 9.2 mph - N/A   Clear
4:33 PM 46.4 °F 43.5 °F 23.9 °F 41% 30.28 in 10.0 mi SW 5.8 mph - N/A   Clear
4:54 PM 45.7 °F 41.5 °F 25.2 °F 45% 30.29 in 10.0 mi SW 8.1 mph - N/A   Clear
5:13 PM 44.6 °F 40.7 °F 24.8 °F 46% 30.30 in 10.0 mi SW 6.9 mph - N/A   Clear
5:33 PM 43.5 °F 39.4 °F 24.8 °F 48% 30.31 in 10.0 mi SW 6.9 mph - N/A   Clear
5:54 PM 43.2 °F 39.0 °F 24.8 °F 48% 30.32 in 10.0 mi SW 6.9 mph - N/A   Clear
6:13 PM 42.4 °F 38.1 °F 25.2 °F 50% 30.32 in 10.0 mi SW 6.9 mph - N/A   Clear
6:34 PM 41.2 °F 36.6 °F 25.3 °F 53% 30.33 in 10.0 mi SW 6.9 mph - N/A   Clear
6:54 PM 39.7 °F 34.9 °F 25.3 °F 56% 30.34 in 10.0 mi WSW 6.9 mph - N/A   Clear
7:13 PM 39.7 °F 34.3 °F 25.7 °F 57% 30.34 in 10.0 mi SW 8.1 mph - N/A   Clear
7:33 PM 38.8 °F 33.2 °F 26.1 °F 60% 30.34 in 10.0 mi SW 8.1 mph - N/A   Clear
7:54 PM 38.8 °F 32.6 °F 27.3 °F 63% 30.34 in 10.0 mi WSW 9.2 mph - N/A   Clear
8:13 PM 39.9 °F 33.4 °F 27.9 °F 62% 30.35 in 10.0 mi WSW 10.4 mph - N/A   Clear
8:34 PM 39.6 °F 33.5 °F 28.2 °F 64% 30.35 in 10.0 mi WSW 9.2 mph - N/A   Clear
8:54 PM 37.9 °F 32.1 °F 28.4 °F 69% 30.36 in 10.0 mi WSW 8.1 mph - N/A   Clear
9:14 PM 37.2 °F 32.6 °F 28.4 °F 70% 30.36 in 10.0 mi WSW 5.8 mph - N/A   Clear
9:54 PM 35.6 °F 32.8 °F 28.8 °F 76% 30.35 in 10.0 mi West 3.5 mph - N/A   Clear
10:14 PM 35.4 °F 31.5 °F 28.8 °F 77% 30.35 in 10.0 mi WSW 4.6 mph - N/A   Clear
10:34 PM 32.9 °F 26.7 °F 27.5 °F 81% 30.36 in 10.0 mi WSW 6.9 mph - N/A   Clear
10:54 PM 35.6 °F 30.7 °F 29.3 °F 78% 30.36 in 10.0 mi West 5.8 mph - N/A   Clear
11:14 PM 33.8 °F 29.6 °F 28.6 °F 81% 30.37 in 10.0 mi West 4.6 mph - N/A   Clear
11:34 PM 35.1 °F 31.0 °F 29.1 °F 79% 30.38 in 10.0 mi West 4.6 mph - N/A   Clear
11:54 PM 32.7 °F 29.6 °F 27.9 °F 82% 30.38 in 10.0 mi WSW 3.5 mph - N/A   Clear